Location: La Brionne
(46.1728°N, 1.7849°E)
Time: 14:36:58
(UTC+00:00)

BlueWalker 3 - Visible Passes

Search period start: 27 February 2024 00:00
Search period end: 08 March 2024 00:00
Orbit: 486 x 500 km, 53.2° (Epoch: 26 February)

Date Brightness Start Highest point End Pass type
(mag) Time Alt. Az. Time Alt. Az. Time Alt. Az.
27 Feb 2.9 19:11:35 10° NW 19:15:01 33° NNE 19:15:48 30° NE visible
27 Feb 5.1 20:49:50 10° WNW 20:50:17 13° WNW 20:50:17 13° WNW visible
28 Feb 3.0 18:47:43 10° NW 18:51:10 32° NNE 18:52:59 21° ENE visible
28 Feb 4.3 20:25:59 10° WNW 20:27:28 23° WNW 20:27:28 23° WNW visible
29 Feb 3.0 18:23:50 10° NW 18:27:17 32° NNE 18:30:12 13° ENE visible
29 Feb 3.1 20:02:05 10° WNW 20:04:41 41° WNW 20:04:41 41° WNW visible
01 Mar 1.8 19:38:12 10° WNW 19:41:55 86° W 19:41:55 86° W visible
02 Mar 1.8 19:14:18 10° WNW 19:18:06 90° NE 19:19:13 44° ESE visible
02 Mar 5.1 20:53:33 10° W 20:53:42 11° W 20:53:42 11° W visible
03 Mar 1.8 18:50:22 10° WNW 18:54:10 87° NNE 18:56:35 21° ESE visible
03 Mar 4.6 20:29:33 10° W 20:31:04 15° WSW 20:31:04 15° WSW visible
04 Mar 1.8 18:26:25 10° WNW 18:30:13 85° NNE 18:34:00 10° ESE visible
04 Mar 4.2 20:05:32 10° W 20:08:04 17° SW 20:08:31 17° SW visible
05 Mar 4.3 19:41:31 10° W 19:44:07 18° SW 19:46:05 13° SSW visible
06 Mar 4.3 19:17:29 10° W 19:20:09 18° SW 19:22:49 10° S visible
07 Mar 4.4 18:53:26 10° W 18:56:10 19° SW 18:58:54 10° S visible
